Weather History for KIND - June, 2012

Change the Weather History Date:

Saturday, June 16, 2012

  Actual Average Record
Temperature  
Mean Temperature 81 °F 72 °F  
Max Temperature 93 °F 82 °F 96 °F (1913)
Min Temperature 68 °F 63 °F 41 °F (1917)
Degree Days  
Heating Degree Days 0 0  
Month to date heating degree days 15 13  
Since 1 June heating degree days 15 13  
Since 1 July heating degree days 4116 5375  
Cooling Degree Days 16 8  
Month to date cooling degree days 95 98  
Year to date cooling degree days 305 182  
Since 1 June cooling degree days 95 98  
Growing Degree Days 30 (Base 50)    
Moisture  
Dew Point 63 °F    
Average Humidity 53    
Maximum Humidity 74    
Minimum Humidity 32    
Precipitation  
Precipitation 0.00 in 0.13 in 1.98 in (2004)
Month to date precipitation 0.05 2.25  
Year to date precipitation 15.11 19.65  
Snow  
Snow 0.00 in 0.00 in 0.00 in ()
Month to date snowfall 0.0 0.0  
Since 1 June snowfall 0.0 0.0  
Since 1 July snowfall 9.8 25.9  
Snow Depth 0.00 in    
Sea Level Pressure  
Sea Level Pressure 30.05 in    
Wind  
Wind Speed 9 mph (South)    
Max Wind Speed 18 mph    
Max Gust Speed 28 mph    
Visibility 10 miles    
Events      
T = Trace of Precipitation, MM = Missing Value Source: NWS Daily Summary

Daily Weather History Graph

Daily Weather History Graph

Search for Another Location

Airport or City:

Trip Planner

Search our weather history database for the weather conditions in past years. The results will help you decide how hot, cold, wet, or windy it might be!

Date:

Astronomy

Jun. 16, 2012 Rise Set
Actual Time 6:16 AM EDT 9:15 PM EDT
Civil Twilight 5:44 AM EDT 9:48 PM EDT
Nautical Twilight 5:02 AM EDT 10:29 PM EDT
Astronomical Twilight 4:14 AM EDT 11:17 PM EDT
Moon 4:05 AM EDT (6/16) 6:50 PM EDT (6/16)
Length of Visible Light 16h 03m
Length of Day
14h 58m
Waning Crescent, 8% of the Moon is Illuminated
Jun 16
Waning Crescent
Jun 19
New
Jun 26
First Quarter
Jul 3
Full
Jul 10
Last Quarter

Hourly Weather History & Observations

Time (EDT) Temp. Heat Index Dew Point Humidity Pressure Visibility Wind Dir Wind Speed Gust Speed Precip Events Conditions
12:54 AM 72.0 °F - 55.0 °F 55% 30.06 in 10.0 mi SE 8.1 mph - N/A   Clear
1:54 AM 71.1 °F - 55.9 °F 59% 30.06 in 10.0 mi SSE 6.9 mph - N/A   Clear
2:54 AM 71.1 °F - 57.0 °F 61% 30.05 in 10.0 mi SSE 4.6 mph - N/A   Partly Cloudy
3:54 AM 69.1 °F - 57.9 °F 68% 30.06 in 10.0 mi SSE 5.8 mph - N/A   Clear
4:54 AM 69.1 °F - 59.0 °F 70% 30.06 in 10.0 mi South 5.8 mph - N/A   Partly Cloudy
5:54 AM 68.0 °F - 59.0 °F 73% 30.08 in 10.0 mi SSE 4.6 mph - N/A   Scattered Clouds
6:54 AM 69.1 °F - 61.0 °F 75% 30.09 in 10.0 mi ESE 6.9 mph - N/A   Mostly Cloudy
7:54 AM 71.1 °F - 62.1 °F 73% 30.12 in 10.0 mi SE 6.9 mph - N/A   Scattered Clouds
8:54 AM 75.0 °F - 64.0 °F 69% 30.13 in 10.0 mi South 4.6 mph - N/A   Partly Cloudy
9:54 AM 79.0 °F - 64.9 °F 62% 30.12 in 10.0 mi SW 5.8 mph - N/A   Partly Cloudy
10:54 AM 82.9 °F 85.0 °F 66.0 °F 56% 30.11 in 10.0 mi South 8.1 mph - N/A   Partly Cloudy
11:54 AM 86.0 °F 87.6 °F 64.9 °F 49% 30.11 in 10.0 mi SSW 11.5 mph 16.1 mph N/A   Scattered Clouds
12:54 PM 89.1 °F 91.3 °F 66.0 °F 46% 30.09 in 10.0 mi SSW 13.8 mph 19.6 mph N/A   Scattered Clouds
1:54 PM 89.1 °F 91.0 °F 64.9 °F 45% 30.07 in 10.0 mi SW 13.8 mph 19.6 mph N/A   Scattered Clouds
2:54 PM 90.0 °F 90.3 °F 62.1 °F 39% 30.06 in 10.0 mi SSW 9.2 mph 18.4 mph N/A   Scattered Clouds
3:54 PM 91.9 °F 90.8 °F 57.9 °F 32% 30.02 in 10.0 mi South 13.8 mph 27.6 mph N/A   Mostly Cloudy
4:54 PM 91.9 °F 91.2 °F 59.0 °F 33% 30.00 in 10.0 mi SSW 13.8 mph - N/A   Mostly Cloudy
5:54 PM 90.0 °F 90.0 °F 61.0 °F 38% 30.00 in 10.0 mi SW 11.5 mph - N/A   Mostly Cloudy
6:54 PM 89.1 °F 89.0 °F 61.0 °F 39% 29.97 in 10.0 mi SSW 15.0 mph - N/A   Mostly Cloudy
7:54 PM 86.0 °F 88.8 °F 66.9 °F 53% 29.97 in 10.0 mi South 12.7 mph - N/A   Mostly Cloudy
8:54 PM 82.4 °F 85.4 °F 68.0 °F 62% 30.00 in 10.0 mi SSE 6.9 mph - N/A   Mostly Cloudy
9:54 PM 82.0 °F 85.9 °F 70.0 °F 67% 29.97 in 10.0 mi SSE 11.5 mph - N/A   Mostly Cloudy
10:54 PM 79.0 °F - 70.0 °F 74% 29.97 in 10.0 mi SE 10.4 mph - N/A   Mostly Cloudy
11:54 PM 77.0 °F - 66.9 °F 71% 29.99 in 10.0 mi South 8.1 mph - N/A   Scattered Clouds